Regional Weather Roundup
Issued by NWS

Home | Current Version | Previous Version | Graphics & Text | Print | Product List | Glossary On
Versions: 1 2 3 4 5 6 7 8 9 10 11 12 13 14 15 16 17 18 19 20 21 22 23 24 25 26 27 28 29 30 31 32 33 34 35 36 37 38 39 40 41 42 43 44 45 46 47 48 49 50
000
ASUS43 KBIS 231810
RWRND
NORTH DAKOTA REGIONAL WEATHER ROUNDUP
NATIONAL WEATHER SERVICE EASTERN NORTH DAKOTA/GRAND FORKS ND
100 PM CDT WED MAY 23 2018

  NOTE: "FAIR" INDICATES FEW OR NO CLOUDS BELOW 12,000 FEET WITH NO
  SIGNIFICANT WEATHER AND/OR OBSTRUCTIONS TO VISIBILITY.

NDZ001>003-009>011-017-231900-
...NORTHWEST NORTH DAKOTA...

CITY           SKY/WX    TMP DP  RH WIND       PRES   REMARKS
WILLISTON      PTSUNNY   76  61  59 SE9       29.88F
6HR MIN TEMP:  60; 6HR MAX TEMP:  76; 6HR PCP: TRACE;

MINOT          FAIR      79  59  50 E18       29.92F
MINOT AFB      FAIR      82  57  43 S22G29    29.91S
6HR MIN TEMP:  58; 6HR MAX TEMP:  82; 6HR PCP: TRACE;

$$

NDZ018>021-031>035-040>046-231900-
...SOUTHWEST NORTH DAKOTA...

CITY           SKY/WX    TMP DP  RH WIND       PRES   REMARKS
BISMARCK       FAIR      79  63  57 SE13      29.91F
DICKINSON      PTSUNNY   69  62  78 SE10      29.90F
GARRISON         N/A     68  64  87 SE5       29.92F
HETTINGER      CLOUDY    65  59  81 E8        29.92S
$$

NDZ004>008-012>016-024-026-027-054-231900-
...NORTHEAST NORTH DAKOTA...

CITY           SKY/WX    TMP DP  RH WIND       PRES   REMARKS
GRAND FORKS    PTSUNNY   83  61  47 SE16G23   29.97F
GRAND FORKS AF PTSUNNY   82  61  47 S14G21    29.98S
DEVILS LAKE    FAIR      80  61  52 SE17      29.97F
$$

NDZ022-023-025-028>030-036>039-047>053-231900-
...SOUTHEAST NORTH DAKOTA...

CITY           SKY/WX    TMP DP  RH WIND       PRES   REMARKS
JAMESTOWN      FAIR      74  60  61 SE15      29.96S
FARGO          FAIR      82  62  50 S20G37    29.99S
WAHPETON       FAIR      70  61  73 S20G29    30.02F
$$



USA.gov is the U.S. government's official web portal to all federal, state and local government web resources and services.